Time,TemperatureF,DewpointF,PressureIn,WindDirection,WindDirectionDegrees,WindSpeedMPH,WindSpeedGustMPH,Humidity,HourlyPrecipIn,Conditions,Clouds,dailyrainin,SoftwareType,DateUTC
2013-06-20 00:03:00,68.4,65.4,29.98,SSE,161,0.0,0.0,90,0.00,,,0.00,Wunderground v.1.15,2013-06-20 05:03:00,
2013-06-20 00:08:00,68.3,65.3,29.98,SSE,161,0.0,0.0,90,0.00,,,0.00,Wunderground v.1.15,2013-06-20 05:08:00,
2013-06-20 00:13:00,68.1,65.1,29.98,SSE,161,0.0,0.0,90,0.00,,,0.00,Wunderground v.1.15,2013-06-20 05:13:00,
2013-06-20 00:19:00,67.9,64.9,29.98,SSE,161,0.0,0.0,90,0.00,,,0.00,Wunderground v.1.15,2013-06-20 05:19:00,
2013-06-20 00:24:00,67.8,64.8,29.98,SSE,161,0.0,0.0,90,0.00,,,0.00,Wunderground v.1.15,2013-06-20 05:24:00,
2013-06-20 00:30:00,67.8,65.1,29.98,SSE,161,0.0,0.0,91,0.00,,,0.00,Wunderground v.1.15,2013-06-20 05:30:00,
2013-06-20 00:36:00,67.8,65.1,29.98,SSE,161,0.0,0.0,91,0.00,,,0.00,Wunderground v.1.15,2013-06-20 05:36:00,
2013-06-20 00:42:00,67.8,65.1,29.98,SSE,161,0.0,0.0,91,0.00,,,0.00,Wunderground v.1.15,2013-06-20 05:42:00,
2013-06-20 00:47:00,67.8,65.1,29.98,SSE,161,0.0,0.0,91,0.00,,,0.00,Wunderground v.1.15,2013-06-20 05:47:00,
2013-06-20 00:53:00,67.6,65.2,29.98,SSE,161,0.0,0.0,92,0.00,,,0.00,Wunderground v.1.15,2013-06-20 05:53:00,
2013-06-20 00:58:00,67.6,65.2,29.98,SSE,161,0.0,0.0,92,0.00,,,0.00,Wunderground v.1.15,2013-06-20 05:58:00,
2013-06-20 01:04:00,67.4,65.0,29.98,SSE,161,0.0,0.0,92,0.00,,,0.00,Wunderground v.1.15,2013-06-20 06:04:00,
2013-06-20 01:09:00,67.4,65.0,29.98,SSE,161,0.0,0.0,92,0.00,,,0.00,Wunderground v.1.15,2013-06-20 06:09:00,
2013-06-20 01:15:00,67.3,64.9,29.98,SSE,161,0.0,0.0,92,0.00,,,0.00,Wunderground v.1.15,2013-06-20 06:15:00,
2013-06-20 01:20:00,67.1,64.7,29.98,SSE,161,0.0,0.0,92,0.00,,,0.00,Wunderground v.1.15,2013-06-20 06:20:00,
2013-06-20 01:26:00,67.1,64.7,29.98,SSE,161,0.0,0.0,92,0.00,,,0.00,Wunderground v.1.15,2013-06-20 06:26:00,
2013-06-20 01:31:00,66.9,64.5,29.98,SSE,161,0.0,0.0,92,0.00,,,0.00,Wunderground v.1.15,2013-06-20 06:31:00,
2013-06-20 01:36:00,66.9,64.5,29.97,SSE,161,0.0,0.0,92,0.00,,,0.00,Wunderground v.1.15,2013-06-20 06:36:00,
2013-06-20 01:42:00,66.8,64.4,29.97,SSE,161,0.0,0.0,92,0.00,,,0.00,Wunderground v.1.15,2013-06-20 06:42:00,
2013-06-20 01:47:00,66.8,64.4,29.97,SSE,161,0.0,0.0,92,0.00,,,0.00,Wunderground v.1.15,2013-06-20 06:47:00,
2013-06-20 01:52:00,66.6,64.5,29.97,SSE,161,0.0,0.0,93,0.00,,,0.00,Wunderground v.1.15,2013-06-20 06:52:00,
2013-06-20 01:57:00,66.6,64.2,29.97,SSE,161,0.0,0.0,92,0.00,,,0.00,Wunderground v.1.15,2013-06-20 06:57:00,
2013-06-20 02:02:00,66.4,64.3,29.98,SSE,161,0.0,0.0,93,0.00,,,0.00,Wunderground v.1.15,2013-06-20 07:02:00,
2013-06-20 02:07:00,66.3,64.2,29.98,SSE,161,0.0,0.0,93,0.00,,,0.00,Wunderground v.1.15,2013-06-20 07:07:00,
2013-06-20 02:12:00,66.3,64.2,29.98,SSE,161,0.0,0.0,93,0.00,,,0.00,Wunderground v.1.15,2013-06-20 07:12:00,
2013-06-20 02:17:00,66.3,64.2,29.98,SSE,161,0.0,0.0,93,0.00,,,0.00,Wunderground v.1.15,2013-06-20 07:17:00,
2013-06-20 02:22:00,66.1,64.0,29.98,SSE,161,0.0,0.0,93,0.00,,,0.00,Wunderground v.1.15,2013-06-20 07:22:00,
2013-06-20 02:27:00,66.1,64.0,29.98,SSE,161,0.0,0.0,93,0.00,,,0.00,Wunderground v.1.15,2013-06-20 07:27:00,
2013-06-20 02:32:00,66.1,64.0,29.98,SSE,161,0.0,0.0,93,0.00,,,0.00,Wunderground v.1.15,2013-06-20 07:32:00,
2013-06-20 02:37:00,66.0,63.9,29.98,SSE,161,0.0,0.0,93,0.00,,,0.00,Wunderground v.1.15,2013-06-20 07:37:00,
2013-06-20 02:42:00,66.0,63.9,29.98,SSE,161,0.0,0.0,93,0.00,,,0.00,Wunderground v.1.15,2013-06-20 07:42:00,
2013-06-20 02:47:00,66.0,63.9,29.98,SSE,161,0.0,0.0,93,0.00,,,0.00,Wunderground v.1.15,2013-06-20 07:47:00,
2013-06-20 02:53:00,65.8,63.7,29.98,SSE,161,0.0,0.0,93,0.00,,,0.00,Wunderground v.1.15,2013-06-20 07:53:00,
2013-06-20 02:58:00,65.8,63.7,29.98,SSE,161,0.0,0.0,93,0.00,,,0.00,Wunderground v.1.15,2013-06-20 07:58:00,
2013-06-20 03:03:00,65.8,63.7,29.98,SSE,161,0.0,0.0,93,0.00,,,0.00,Wunderground v.1.15,2013-06-20 08:03:00,
2013-06-20 03:08:00,66.0,63.9,29.98,SSE,161,0.0,0.0,93,0.00,,,0.00,Wunderground v.1.15,2013-06-20 08:08:00,
2013-06-20 03:13:00,66.0,63.9,29.98,SSE,161,0.0,0.0,93,0.00,,,0.00,Wunderground v.1.15,2013-06-20 08:13:00,
2013-06-20 03:18:00,65.8,63.7,29.97,SSE,161,0.0,0.0,93,0.00,,,0.00,Wunderground v.1.15,2013-06-20 08:18:00,
2013-06-20 03:23:00,65.8,64.0,29.97,SSE,161,0.0,0.0,94,0.00,,,0.00,Wunderground v.1.15,2013-06-20 08:23:00,
2013-06-20 03:28:00,65.8,64.0,29.97,SSE,161,0.0,0.0,94,0.00,,,0.00,Wunderground v.1.15,2013-06-20 08:28:00,
2013-06-20 03:33:00,65.6,63.8,29.97,SSE,161,0.0,0.0,94,0.00,,,0.00,Wunderground v.1.15,2013-06-20 08:33:00,
2013-06-20 03:38:00,65.6,63.8,29.97,SSE,161,0.0,0.0,94,0.00,,,0.00,Wunderground v.1.15,2013-06-20 08:38:00,
2013-06-20 03:43:00,65.6,63.8,29.97,SSE,161,0.0,0.0,94,0.00,,,0.00,Wunderground v.1.15,2013-06-20 08:43:00,
2013-06-20 03:48:00,65.5,63.7,29.98,SSE,161,0.0,0.0,94,0.00,,,0.00,Wunderground v.1.15,2013-06-20 08:48:00,
2013-06-20 03:53:00,65.5,63.7,29.98,SSE,161,0.0,0.0,94,0.00,,,0.00,Wunderground v.1.15,2013-06-20 08:53:00,
2013-06-20 03:58:00,65.3,63.5,29.98,SSE,161,0.0,0.0,94,0.00,,,0.00,Wunderground v.1.15,2013-06-20 08:58:00,
2013-06-20 04:03:00,65.3,63.5,29.98,SSE,161,0.0,0.0,94,0.00,,,0.00,Wunderground v.1.15,2013-06-20 09:03:00,
2013-06-20 04:08:00,65.2,63.4,29.98,SSE,161,0.0,0.0,94,0.00,,,0.00,Wunderground v.1.15,2013-06-20 09:08:00,
2013-06-20 04:13:00,65.2,63.4,29.98,SSE,161,0.0,0.0,94,0.00,,,0.00,Wunderground v.1.15,2013-06-20 09:13:00,
2013-06-20 04:18:00,65.2,63.4,29.98,SSE,161,0.0,0.0,94,0.00,,,0.00,Wunderground v.1.15,2013-06-20 09:18:00,
2013-06-20 04:23:00,65.0,63.2,29.98,SSE,161,0.0,0.0,94,0.00,,,0.00,Wunderground v.1.15,2013-06-20 09:23:00,
2013-06-20 04:28:00,65.0,63.2,29.98,SSE,161,0.0,0.0,94,0.00,,,0.00,Wunderground v.1.15,2013-06-20 09:28:00,
2013-06-20 04:33:00,64.8,63.0,29.98,SSE,161,0.0,0.0,94,0.00,,,0.00,Wunderground v.1.15,2013-06-20 09:33:00,
2013-06-20 04:38:00,64.8,63.0,29.98,SSE,161,0.0,0.0,94,0.00,,,0.00,Wunderground v.1.15,2013-06-20 09:38:00,
2013-06-20 04:43:00,64.7,62.9,29.98,SSE,161,0.0,0.0,94,0.00,,,0.00,Wunderground v.1.15,2013-06-20 09:43:00,
2013-06-20 04:49:00,64.7,62.9,29.99,SSE,161,0.0,0.0,94,0.00,,,0.00,Wunderground v.1.15,2013-06-20 09:49:00,
2013-06-20 04:54:00,64.7,62.9,29.99,SSE,161,0.0,0.0,94,0.00,,,0.00,Wunderground v.1.15,2013-06-20 09:54:00,
2013-06-20 04:59:00,64.7,62.9,29.99,SSE,161,0.0,0.0,94,0.00,,,0.00,Wunderground v.1.15,2013-06-20 09:59:00,
2013-06-20 05:04:00,64.7,62.9,29.98,SSE,161,0.0,0.0,94,0.00,,,0.00,Wunderground v.1.15,2013-06-20 10:04:00,
2013-06-20 05:09:00,64.7,62.9,29.98,SSE,161,0.0,0.0,94,0.00,,,0.00,Wunderground v.1.15,2013-06-20 10:09:00,
2013-06-20 05:14:00,64.7,62.9,29.98,SSE,161,0.0,0.0,94,0.00,,,0.00,Wunderground v.1.15,2013-06-20 10:14:00,
2013-06-20 05:19:00,64.5,62.7,29.99,SSE,161,0.0,0.0,94,0.00,,,0.00,Wunderground v.1.15,2013-06-20 10:19:00,
2013-06-20 05:24:00,64.5,62.7,29.99,SSE,161,0.0,0.0,94,0.00,,,0.00,Wunderground v.1.15,2013-06-20 10:24:00,
2013-06-20 05:29:00,64.5,62.7,29.99,SSE,161,0.0,0.0,94,0.00,,,0.00,Wunderground v.1.15,2013-06-20 10:29:00,
2013-06-20 05:34:00,64.5,62.7,29.99,SSE,161,0.0,0.0,94,0.00,,,0.00,Wunderground v.1.15,2013-06-20 10:34:00,
2013-06-20 05:39:00,64.5,62.7,29.99,SSE,161,0.0,0.0,94,0.00,,,0.00,Wunderground v.1.15,2013-06-20 10:39:00,
2013-06-20 05:44:00,64.3,62.5,29.99,SSE,161,0.0,0.0,94,0.00,,,0.00,Wunderground v.1.15,2013-06-20 10:44:00,
2013-06-20 05:49:00,64.5,63.0,30.00,SSE,161,0.0,0.0,95,0.00,,,0.00,Wunderground v.1.15,2013-06-20 10:49:00,
2013-06-20 05:54:00,64.5,63.0,30.00,SSE,161,0.0,0.0,95,0.00,,,0.00,Wunderground v.1.15,2013-06-20 10:54:00,
2013-06-20 05:59:00,64.3,62.5,30.00,SSE,161,0.0,0.0,94,0.00,,,0.00,Wunderground v.1.15,2013-06-20 10:59:00,
2013-06-20 06:04:00,64.3,62.8,30.00,SSE,161,0.0,0.0,95,0.00,,,0.00,Wunderground v.1.15,2013-06-20 11:04:00,
2013-06-20 06:09:00,64.3,62.8,30.00,SSE,161,0.0,0.0,95,0.00,,,0.00,Wunderground v.1.15,2013-06-20 11:09:00,
2013-06-20 06:14:00,64.3,62.8,30.00,SSE,161,0.0,0.0,95,0.00,,,0.00,Wunderground v.1.15,2013-06-20 11:14:00,
2013-06-20 06:19:00,64.3,62.8,30.00,SSE,161,0.0,0.0,95,0.00,,,0.00,Wunderground v.1.15,2013-06-20 11:19:00,
2013-06-20 06:24:00,64.3,62.8,30.00,SSE,161,0.0,0.0,95,0.00,,,0.00,Wunderground v.1.15,2013-06-20 11:24:00,
2013-06-20 06:29:00,64.5,63.0,30.00,SSE,161,0.0,1.0,95,0.00,,,0.00,Wunderground v.1.15,2013-06-20 11:29:00,
2013-06-20 06:34:00,64.8,63.3,30.00,SSE,161,0.0,0.0,95,0.00,,,0.00,Wunderground v.1.15,2013-06-20 11:34:00,
2013-06-20 06:39:00,65.0,63.5,30.00,SSE,161,0.0,0.0,95,0.00,,,0.00,Wunderground v.1.15,2013-06-20 11:39:00,
2013-06-20 06:44:00,65.0,63.5,30.00,SSE,161,0.0,0.0,95,0.00,,,0.00,Wunderground v.1.15,2013-06-20 11:44:00,
2013-06-20 06:49:00,65.2,63.7,30.00,SSE,161,0.0,0.0,95,0.00,,,0.00,Wunderground v.1.15,2013-06-20 11:49:00,
2013-06-20 06:54:00,65.5,64.0,30.00,SSE,161,2.0,4.0,95,0.00,,,0.00,Wunderground v.1.15,2013-06-20 11:54:00,
2013-06-20 06:59:00,65.8,64.3,30.00,SSE,161,1.0,4.0,95,0.00,,,0.00,Wunderground v.1.15,2013-06-20 11:59:00,
2013-06-20 07:04:00,66.3,64.8,30.00,SSE,161,0.0,0.0,95,0.00,,,0.00,Wunderground v.1.15,2013-06-20 12:04:00,
2013-06-20 07:09:00,66.4,64.9,30.00,SSE,161,0.0,0.0,95,0.00,,,0.00,Wunderground v.1.15,2013-06-20 12:09:00,
2013-06-20 07:14:00,66.9,65.1,30.00,SSE,161,0.0,2.0,94,0.00,,,0.00,Wunderground v.1.15,2013-06-20 12:14:00,
2013-06-20 07:20:00,67.4,65.6,30.02,SSE,161,0.0,0.0,94,0.00,,,0.00,Wunderground v.1.15,2013-06-20 12:20:00,
2013-06-20 07:25:00,67.8,65.7,30.02,SSE,161,0.0,0.0,93,0.00,,,0.00,Wunderground v.1.15,2013-06-20 12:25:00,
2013-06-20 07:30:00,68.3,65.9,30.02,SSE,161,0.0,0.0,92,0.00,,,0.00,Wunderground v.1.15,2013-06-20 12:30:00,
2013-06-20 07:35:00,68.9,66.2,30.02,SSE,151,2.0,4.0,91,0.00,,,0.00,Wunderground v.1.15,2013-06-20 12:35:00,
2013-06-20 07:41:00,69.4,66.0,30.02,SSE,153,0.0,5.0,89,0.00,,,0.00,Wunderground v.1.15,2013-06-20 12:41:00,
2013-06-20 07:46:00,70.1,66.0,30.02,SE,126,3.0,5.0,87,0.00,,,0.00,Wunderground v.1.15,2013-06-20 12:46:00,
2013-06-20 07:51:00,70.6,66.2,30.02,SSE,163,0.0,2.0,86,0.00,,,0.00,Wunderground v.1.15,2013-06-20 12:51:00,
2013-06-20 07:56:00,71.1,66.0,30.02,SSE,161,2.0,6.0,84,0.00,,,0.00,Wunderground v.1.15,2013-06-20 12:56:00,
2013-06-20 08:01:00,71.5,65.7,30.02,SSE,161,0.0,2.0,82,0.00,,,0.00,Wunderground v.1.15,2013-06-20 13:01:00,
2013-06-20 08:06:00,71.8,66.0,30.02,SE,141,0.0,2.0,82,0.00,,,0.00,Wunderground v.1.15,2013-06-20 13:06:00,
2013-06-20 08:11:00,72.1,65.9,30.02,SE,135,3.0,3.0,81,0.00,,,0.00,Wunderground v.1.15,2013-06-20 13:11:00,
2013-06-20 08:16:00,72.5,66.0,30.02,SE,136,0.0,6.0,80,0.00,,,0.00,Wunderground v.1.15,2013-06-20 13:16:00,
2013-06-20 08:21:00,73.0,66.5,30.03,SE,144,2.0,5.0,80,0.00,,,0.00,Wunderground v.1.15,2013-06-20 13:21:00,
2013-06-20 08:26:00,73.2,65.9,30.03,SSE,148,5.0,6.0,78,0.00,,,0.00,Wunderground v.1.15,2013-06-20 13:26:00,
2013-06-20 08:31:00,73.5,66.2,30.03,SE,142,0.0,5.0,78,0.00,,,0.00,Wunderground v.1.15,2013-06-20 13:31:00,
2013-06-20 08:36:00,74.0,66.7,30.03,SE,124,0.0,7.0,78,0.00,,,0.00,Wunderground v.1.15,2013-06-20 13:36:00,
2013-06-20 08:41:00,74.4,66.7,30.03,South,186,3.0,6.0,77,0.00,,,0.00,Wunderground v.1.15,2013-06-20 13:41:00,
2013-06-20 08:46:00,74.7,66.6,30.03,SSE,159,2.0,6.0,76,0.00,,,0.00,Wunderground v.1.15,2013-06-20 13:46:00,
2013-06-20 08:51:00,75.4,67.3,30.03,SSE,165,3.0,3.0,76,0.00,,,0.00,Wunderground v.1.15,2013-06-20 13:51:00,
2013-06-20 08:56:00,75.8,66.9,30.03,SSE,155,4.0,6.0,74,0.00,,,0.00,Wunderground v.1.15,2013-06-20 13:56:00,
2013-06-20 09:01:00,76.1,67.2,30.03,SE,137,0.0,3.0,74,0.00,,,0.00,Wunderground v.1.15,2013-06-20 14:01:00,
2013-06-20 09:06:00,76.5,66.8,30.03,SW,215,1.0,7.0,72,0.00,,,0.00,Wunderground v.1.15,2013-06-20 14:06:00,
2013-06-20 09:11:00,76.7,67.0,30.03,SW,216,4.0,5.0,72,0.00,,,0.00,Wunderground v.1.15,2013-06-20 14:11:00,
2013-06-20 09:16:00,77.2,67.5,30.03,South,182,2.0,7.0,72,0.00,,,0.00,Wunderground v.1.15,2013-06-20 14:16:00,
2013-06-20 09:21:00,77.4,66.8,30.03,SSE,161,0.0,5.0,70,0.00,,,0.00,Wunderground v.1.15,2013-06-20 14:21:00,
2013-06-20 09:26:00,77.6,67.0,30.03,SSW,204,0.0,5.0,70,0.00,,,0.00,Wunderground v.1.15,2013-06-20 14:26:00,
2013-06-20 09:32:00,77.9,66.9,30.03,South,173,0.0,5.0,69,0.00,,,0.00,Wunderground v.1.15,2013-06-20 14:32:00,
2013-06-20 09:37:00,78.3,68.1,30.03,SSW,201,0.0,8.0,71,0.00,,,0.00,Wunderground v.1.15,2013-06-20 14:37:00,
2013-06-20 09:42:00,78.5,66.6,30.03,South,182,0.0,9.0,67,0.00,,,0.00,Wunderground v.1.15,2013-06-20 14:42:00,
2013-06-20 09:47:00,78.8,66.9,30.03,SSW,205,0.0,9.0,67,0.00,,,0.00,Wunderground v.1.15,2013-06-20 14:47:00,
2013-06-20 09:52:00,79.2,66.9,30.03,SSE,162,3.0,6.0,66,0.00,,,0.00,Wunderground v.1.15,2013-06-20 14:52:00,
2013-06-20 09:57:00,79.6,67.2,30.03,South,171,1.0,7.0,66,0.00,,,0.00,Wunderground v.1.15,2013-06-20 14:57:00,
2013-06-20 10:02:00,79.9,67.5,30.03,SE,142,4.0,4.0,66,0.00,,,0.00,Wunderground v.1.15,2013-06-20 15:02:00,
2013-06-20 10:08:00,80.3,67.5,30.03,ESE,123,3.0,6.0,65,0.00,,,0.00,Wunderground v.1.15,2013-06-20 15:08:00,
2013-06-20 10:13:00,80.5,67.6,30.03,SW,215,5.0,6.0,65,0.00,,,0.00,Wunderground v.1.15,2013-06-20 15:13:00,
2013-06-20 10:18:00,80.3,66.6,30.03,South,172,0.0,11.0,63,0.00,,,0.00,Wunderground v.1.15,2013-06-20 15:18:00,
2013-06-20 10:23:00,80.5,67.6,30.03,South,171,4.0,9.0,65,0.00,,,0.00,Wunderground v.1.15,2013-06-20 15:23:00,
2013-06-20 10:28:00,80.5,67.2,30.03,SE,144,2.0,11.0,64,0.00,,,0.00,Wunderground v.1.15,2013-06-20 15:28:00,
2013-06-20 10:33:00,81.1,67.8,30.03,SE,130,2.0,9.0,64,0.00,,,0.00,Wunderground v.1.15,2013-06-20 15:33:00,
2013-06-20 10:38:00,81.2,66.9,30.03,SE,143,0.0,9.0,62,0.00,,,0.00,Wunderground v.1.15,2013-06-20 15:38:00,
2013-06-20 10:43:00,81.4,67.1,30.03,SSW,193,4.0,6.0,62,0.00,,,0.00,Wunderground v.1.15,2013-06-20 15:43:00,
2013-06-20 10:48:00,81.6,67.8,30.03,WSW,246,0.0,8.0,63,0.00,,,0.00,Wunderground v.1.15,2013-06-20 15:48:00,
2013-06-20 10:53:00,81.8,68.4,30.03,East,101,1.0,6.0,64,0.00,,,0.00,Wunderground v.1.15,2013-06-20 15:53:00,
2013-06-20 10:58:00,82.0,67.7,30.03,SSE,147,3.0,10.0,62,0.00,,,0.00,Wunderground v.1.15,2013-06-20 15:58:00,
2013-06-20 11:03:00,82.2,68.3,30.03,South,170,5.0,7.0,63,0.00,,,0.00,Wunderground v.1.15,2013-06-20 16:03:00,
2013-06-20 11:08:00,82.4,67.6,30.03,SSE,165,2.0,10.0,61,0.00,,,0.00,Wunderground v.1.15,2013-06-20 16:08:00,
2013-06-20 11:13:00,82.2,68.3,30.03,South,187,2.0,5.0,63,0.00,,,0.00,Wunderground v.1.15,2013-06-20 16:13:00,
2013-06-20 11:18:00,82.2,67.9,30.03,South,176,0.0,7.0,62,0.00,,,0.00,Wunderground v.1.15,2013-06-20 16:18:00,
2013-06-20 11:23:00,82.6,68.3,30.03,South,170,4.0,10.0,62,0.00,,,0.00,Wunderground v.1.15,2013-06-20 16:23:00,
2013-06-20 11:28:00,83.0,68.6,30.03,SSW,200,1.0,10.0,62,0.00,,,0.00,Wunderground v.1.15,2013-06-20 16:28:00,
2013-06-20 11:33:00,82.8,68.4,30.03,SSW,193,5.0,9.0,62,0.00,,,0.00,Wunderground v.1.15,2013-06-20 16:33:00,
2013-06-20 11:38:00,82.0,67.7,30.03,South,188,3.0,9.0,62,0.00,,,0.00,Wunderground v.1.15,2013-06-20 16:38:00,
2013-06-20 11:43:00,82.2,68.8,30.03,South,179,1.0,5.0,64,0.00,,,0.00,Wunderground v.1.15,2013-06-20 16:43:00,
2013-06-20 11:48:00,82.8,68.4,30.03,SSW,209,2.0,11.0,62,0.00,,,0.00,Wunderground v.1.15,2013-06-20 16:48:00,
2013-06-20 11:53:00,83.2,68.3,30.03,South,173,0.0,7.0,61,0.00,,,0.00,Wunderground v.1.15,2013-06-20 16:53:00,
2013-06-20 11:58:00,83.6,68.2,30.03,SSW,212,0.0,7.0,60,0.00,,,0.00,Wunderground v.1.15,2013-06-20 16:58:00,
2013-06-20 12:03:00,84.0,68.1,30.03,SSE,152,0.0,11.0,59,0.00,,,0.00,Wunderground v.1.15,2013-06-20 17:03:00,
2013-06-20 12:08:00,84.1,69.7,30.03,SSE,158,4.0,11.0,62,0.00,,,0.00,Wunderground v.1.15,2013-06-20 17:08:00,
2013-06-20 12:13:00,83.8,66.9,30.03,SSE,157,4.0,11.0,57,0.00,,,0.00,Wunderground v.1.15,2013-06-20 17:13:00,
2013-06-20 12:18:00,84.0,68.1,30.03,SSW,208,0.0,13.0,59,0.00,,,0.00,Wunderground v.1.15,2013-06-20 17:18:00,
2013-06-20 12:23:00,83.8,68.9,30.03,SE,146,2.0,6.0,61,0.00,,,0.00,Wunderground v.1.15,2013-06-20 17:23:00,
2013-06-20 12:28:00,84.0,68.6,30.03,SSW,211,3.0,6.0,60,0.00,,,0.00,Wunderground v.1.15,2013-06-20 17:28:00,
2013-06-20 12:33:00,84.3,67.4,30.02,SE,141,4.0,11.0,57,0.00,,,0.00,Wunderground v.1.15,2013-06-20 17:33:00,
2013-06-20 12:38:00,84.3,68.4,30.02,SSE,150,4.0,11.0,59,0.00,,,0.00,Wunderground v.1.15,2013-06-20 17:38:00,
2013-06-20 12:43:00,84.5,67.6,30.02,SE,140,0.0,11.0,57,0.00,,,0.00,Wunderground v.1.15,2013-06-20 17:43:00,
2013-06-20 12:48:00,84.7,68.3,30.01,SSE,153,6.0,11.0,58,0.00,,,0.00,Wunderground v.1.15,2013-06-20 17:48:00,
2013-06-20 12:53:00,84.9,68.5,30.01,South,182,0.0,6.0,58,0.00,,,0.00,Wunderground v.1.15,2013-06-20 17:53:00,
2013-06-20 12:58:00,84.9,66.9,30.01,SSW,211,1.0,6.0,55,0.00,,,0.00,Wunderground v.1.15,2013-06-20 17:58:00,
2013-06-20 13:03:00,84.7,67.3,30.02,SE,141,6.0,9.0,56,0.00,,,0.00,Wunderground v.1.15,2013-06-20 18:03:00,
2013-06-20 13:08:00,84.5,67.1,30.02,SSW,210,0.0,9.0,56,0.00,,,0.00,Wunderground v.1.15,2013-06-20 18:08:00,
2013-06-20 13:13:00,85.3,68.8,30.02,SSW,211,0.0,5.0,58,0.00,,,0.00,Wunderground v.1.15,2013-06-20 18:13:00,
2013-06-20 13:18:00,85.5,68.0,30.01,South,190,1.0,8.0,56,0.00,,,0.00,Wunderground v.1.15,2013-06-20 18:18:00,
2013-06-20 13:24:00,85.7,67.1,30.01,SSE,148,2.0,6.0,54,0.00,,,0.00,Wunderground v.1.15,2013-06-20 18:24:00,
2013-06-20 13:29:00,86.1,69.1,30.01,SSE,153,4.0,6.0,57,0.00,,,0.00,Wunderground v.1.15,2013-06-20 18:29:00,
2013-06-20 13:34:00,86.1,67.5,30.01,SW,221,0.0,10.0,54,0.00,,,0.00,Wunderground v.1.15,2013-06-20 18:34:00,
2013-06-20 13:39:00,86.3,68.8,30.01,SSW,196,0.0,10.0,56,0.00,,,0.00,Wunderground v.1.15,2013-06-20 18:39:00,
2013-06-20 13:44:00,86.1,67.0,30.01,South,181,0.0,6.0,53,0.00,,,0.00,Wunderground v.1.15,2013-06-20 18:44:00,
2013-06-20 13:49:00,85.9,67.9,30.00,SSE,156,3.0,7.0,55,0.00,,,0.00,Wunderground v.1.15,2013-06-20 18:49:00,
2013-06-20 13:54:00,85.5,67.5,30.00,SSE,147,0.0,6.0,55,0.00,,,0.00,Wunderground v.1.15,2013-06-20 18:54:00,
2013-06-20 13:59:00,85.9,66.8,30.00,SSE,151,6.0,12.0,53,0.00,,,0.00,Wunderground v.1.15,2013-06-20 18:59:00,
2013-06-20 14:04:00,86.3,66.6,30.00,SE,132,10.0,10.0,52,0.00,,,0.00,Wunderground v.1.15,2013-06-20 19:04:00,
2013-06-20 14:09:00,86.1,67.0,30.00,South,184,0.0,10.0,53,0.00,,,0.00,Wunderground v.1.15,2013-06-20 19:09:00,
2013-06-20 14:14:00,86.3,67.7,30.00,SSW,198,6.0,9.0,54,0.00,,,0.00,Wunderground v.1.15,2013-06-20 19:14:00,
2013-06-20 14:19:00,86.5,67.9,29.99,South,173,5.0,9.0,54,0.00,,,0.00,Wunderground v.1.15,2013-06-20 19:19:00,
2013-06-20 14:24:00,85.9,66.2,29.99,SE,131,0.0,10.0,52,0.00,,,0.00,Wunderground v.1.15,2013-06-20 19:24:00,
2013-06-20 14:29:00,85.9,65.7,29.99,SE,135,4.0,12.0,51,0.00,,,0.00,Wunderground v.1.15,2013-06-20 19:29:00,
2013-06-20 14:34:00,85.9,65.1,29.98,SSE,153,2.0,15.0,50,0.00,,,0.00,Wunderground v.1.15,2013-06-20 19:34:00,
2013-06-20 14:39:00,86.1,66.4,29.98,SSE,159,4.0,15.0,52,0.00,,,0.00,Wunderground v.1.15,2013-06-20 19:39:00,
2013-06-20 14:44:00,86.5,66.8,29.98,SSW,202,0.0,7.0,52,0.00,,,0.00,Wunderground v.1.15,2013-06-20 19:44:00,
2013-06-20 14:49:00,86.7,66.4,29.98,SSE,159,2.0,9.0,51,0.00,,,0.00,Wunderground v.1.15,2013-06-20 19:49:00,
2013-06-20 14:54:00,86.7,67.0,29.98,South,184,4.0,9.0,52,0.00,,,0.00,Wunderground v.1.15,2013-06-20 19:54:00,
2013-06-20 14:59:00,87.2,67.4,29.98,SSW,206,3.0,9.0,52,0.00,,,0.00,Wunderground v.1.15,2013-06-20 19:59:00,
2013-06-20 15:04:00,87.4,67.6,29.98,South,181,6.0,6.0,52,0.00,,,0.00,Wunderground v.1.15,2013-06-20 20:04:00,
2013-06-20 15:09:00,87.4,66.5,29.98,South,188,4.0,9.0,50,0.00,,,0.00,Wunderground v.1.15,2013-06-20 20:09:00,
2013-06-20 15:14:00,87.4,65.3,29.98,SW,227,2.0,9.0,48,0.00,,,0.00,Wunderground v.1.15,2013-06-20 20:14:00,
2013-06-20 15:19:00,87.2,67.4,29.97,SSE,164,0.0,9.0,52,0.00,,,0.00,Wunderground v.1.15,2013-06-20 20:19:00,
2013-06-20 15:24:00,87.2,67.4,29.97,South,191,1.0,10.0,52,0.00,,,0.00,Wunderground v.1.15,2013-06-20 20:24:00,
2013-06-20 15:29:00,87.4,67.6,29.97,SSE,153,2.0,10.0,52,0.00,,,0.00,Wunderground v.1.15,2013-06-20 20:29:00,
2013-06-20 15:34:00,87.4,67.1,29.97,SSE,165,1.0,9.0,51,0.00,,,0.00,Wunderground v.1.15,2013-06-20 20:34:00,
2013-06-20 15:39:00,87.4,65.3,29.97,SE,128,11.0,14.0,48,0.00,,,0.00,Wunderground v.1.15,2013-06-20 20:39:00,
2013-06-20 15:44:00,87.2,66.3,29.97,South,182,4.0,6.0,50,0.00,,,0.00,Wunderground v.1.15,2013-06-20 20:44:00,
2013-06-20 15:49:00,87.6,67.8,29.97,SE,145,6.0,7.0,52,0.00,,,0.00,Wunderground v.1.15,2013-06-20 20:49:00,
2013-06-20 15:54:00,87.6,67.8,29.97,SSE,158,0.0,10.0,52,0.00,,,0.00,Wunderground v.1.15,2013-06-20 20:54:00,
2013-06-20 15:59:00,87.2,66.3,29.97,SSW,208,2.0,12.0,50,0.00,,,0.00,Wunderground v.1.15,2013-06-20 20:59:00,
2013-06-20 16:04:00,87.2,65.7,29.97,South,176,4.0,10.0,49,0.00,,,0.00,Wunderground v.1.15,2013-06-20 21:04:00,
2013-06-20 16:09:00,87.4,66.5,29.97,ESE,105,3.0,10.0,50,0.00,,,0.00,Wunderground v.1.15,2013-06-20 21:09:00,
2013-06-20 16:14:00,87.4,65.9,29.97,South,176,2.0,11.0,49,0.00,,,0.00,Wunderground v.1.15,2013-06-20 21:14:00,
2013-06-20 16:20:00,87.4,65.3,29.97,SSW,195,5.0,5.0,48,0.00,,,0.00,Wunderground v.1.15,2013-06-20 21:20:00,
2013-06-20 16:24:00,87.6,64.9,29.97,South,169,3.0,10.0,47,0.00,,,0.00,Wunderground v.1.15,2013-06-20 21:24:00,
2013-06-20 16:30:00,87.2,66.9,29.97,SSW,203,1.0,3.0,51,0.00,,,0.00,Wunderground v.1.15,2013-06-20 21:30:00,
2013-06-20 16:35:00,86.7,65.8,29.97,SSE,157,6.0,13.0,50,0.00,,,0.00,Wunderground v.1.15,2013-06-20 21:35:00,
2013-06-20 16:40:00,87.0,66.1,29.97,SSE,148,4.0,4.0,50,0.00,,,0.00,Wunderground v.1.15,2013-06-20 21:40:00,
2013-06-20 16:46:00,87.2,66.9,29.97,South,182,5.0,7.0,51,0.00,,,0.00,Wunderground v.1.15,2013-06-20 21:46:00,
2013-06-20 16:51:00,87.2,66.3,29.96,SSE,162,5.0,11.0,50,0.00,,,0.00,Wunderground v.1.15,2013-06-20 21:51:00,
2013-06-20 16:56:00,87.0,67.2,29.96,SSW,193,0.0,13.0,52,0.00,,,0.00,Wunderground v.1.15,2013-06-20 21:56:00,
2013-06-20 17:01:00,87.0,65.5,29.96,SE,126,4.0,5.0,49,0.00,,,0.00,Wunderground v.1.15,2013-06-20 22:01:00,
2013-06-20 17:06:00,87.0,67.8,29.96,SE,131,3.0,5.0,53,0.00,,,0.00,Wunderground v.1.15,2013-06-20 22:06:00,
2013-06-20 17:11:00,86.7,67.0,29.96,SSE,150,4.0,4.0,52,0.00,,,0.00,Wunderground v.1.15,2013-06-20 22:11:00,
2013-06-20 17:16:00,86.7,66.4,29.96,SSE,165,3.0,12.0,51,0.00,,,0.00,Wunderground v.1.15,2013-06-20 22:16:00,
2013-06-20 17:21:00,86.7,66.4,29.96,SSE,149,0.0,3.0,51,0.00,,,0.00,Wunderground v.1.15,2013-06-20 22:21:00,
2013-06-20 17:26:00,86.7,67.0,29.96,South,179,0.0,7.0,52,0.00,,,0.00,Wunderground v.1.15,2013-06-20 22:26:00,
2013-06-20 17:31:00,86.7,65.8,29.96,South,178,1.0,9.0,50,0.00,,,0.00,Wunderground v.1.15,2013-06-20 22:31:00,
2013-06-20 17:36:00,86.5,65.1,29.95,SE,139,6.0,13.0,49,0.00,,,0.00,Wunderground v.1.15,2013-06-20 22:36:00,
2013-06-20 17:41:00,86.5,66.8,29.95,South,178,0.0,4.0,52,0.00,,,0.00,Wunderground v.1.15,2013-06-20 22:41:00,
2013-06-20 17:46:00,86.3,66.6,29.95,SE,134,7.0,7.0,52,0.00,,,0.00,Wunderground v.1.15,2013-06-20 22:46:00,
2013-06-20 17:51:00,86.3,67.7,29.95,ESE,123,2.0,2.0,54,0.00,,,0.00,Wunderground v.1.15,2013-06-20 22:51:00,
2013-06-20 17:56:00,86.1,67.5,29.95,SSE,164,1.0,7.0,54,0.00,,,0.00,Wunderground v.1.15,2013-06-20 22:56:00,
2013-06-20 18:01:00,85.9,66.2,29.95,South,188,0.0,4.0,52,0.00,,,0.00,Wunderground v.1.15,2013-06-20 23:01:00,
2013-06-20 18:06:00,85.7,66.0,29.95,South,171,1.0,12.0,52,0.00,,,0.00,Wunderground v.1.15,2013-06-20 23:06:00,
2013-06-20 18:11:00,85.7,66.6,29.95,SSE,150,2.0,12.0,53,0.00,,,0.00,Wunderground v.1.15,2013-06-20 23:11:00,
2013-06-20 18:16:00,85.5,65.3,29.95,SE,135,5.0,12.0,51,0.00,,,0.00,Wunderground v.1.15,2013-06-20 23:16:00,
2013-06-20 18:21:00,85.5,65.3,29.94,South,187,2.0,4.0,51,0.00,,,0.00,Wunderground v.1.15,2013-06-20 23:21:00,
2013-06-20 18:26:00,85.5,65.9,29.94,South,171,3.0,10.0,52,0.00,,,0.00,Wunderground v.1.15,2013-06-20 23:26:00,
2013-06-20 18:31:00,85.5,65.9,29.94,ESE,123,6.0,6.0,52,0.00,,,0.00,Wunderground v.1.15,2013-06-20 23:31:00,
2013-06-20 18:37:00,85.3,66.2,29.94,South,191,3.0,6.0,53,0.00,,,0.00,Wunderground v.1.15,2013-06-20 23:37:00,
2013-06-20 18:42:00,85.1,65.5,29.94,SSE,153,2.0,4.0,52,0.00,,,0.00,Wunderground v.1.15,2013-06-20 23:42:00,
2013-06-20 18:47:00,85.1,66.0,29.95,SSE,157,2.0,11.0,53,0.00,,,0.00,Wunderground v.1.15,2013-06-20 23:47:00,
2013-06-20 18:52:00,84.9,65.9,29.95,SSE,165,0.0,6.0,53,0.00,,,0.00,Wunderground v.1.15,2013-06-20 23:52:00,
2013-06-20 18:58:00,84.9,66.9,29.95,SSE,148,0.0,6.0,55,0.00,,,0.00,Wunderground v.1.15,2013-06-20 23:58:00,
2013-06-20 19:03:00,84.7,66.7,29.95,South,175,1.0,4.0,55,0.00,,,0.00,Wunderground v.1.15,2013-06-21 00:03:00,
2013-06-20 19:08:00,84.5,66.0,29.95,SE,140,5.0,6.0,54,0.00,,,0.00,Wunderground v.1.15,2013-06-21 00:08:00,
2013-06-20 19:13:00,84.5,66.6,29.95,SSW,193,3.0,7.0,55,0.00,,,0.00,Wunderground v.1.15,2013-06-21 00:13:00,
2013-06-20 19:18:00,84.3,66.4,29.94,SSE,159,0.0,7.0,55,0.00,,,0.00,Wunderground v.1.15,2013-06-21 00:18:00,
2013-06-20 19:23:00,84.1,66.2,29.94,ESE,121,0.0,3.0,55,0.00,,,0.00,Wunderground v.1.15,2013-06-21 00:23:00,
2013-06-20 19:28:00,84.0,66.1,29.94,SSE,163,2.0,10.0,55,0.00,,,0.00,Wunderground v.1.15,2013-06-21 00:28:00,
2013-06-20 19:33:00,83.8,66.4,29.94,SSE,161,2.0,6.0,56,0.00,,,0.00,Wunderground v.1.15,2013-06-21 00:33:00,
2013-06-20 19:38:00,83.8,67.4,29.94,SSE,161,0.0,6.0,58,0.00,,,0.00,Wunderground v.1.15,2013-06-21 00:38:00,
2013-06-20 19:43:00,83.4,67.1,29.94,SSE,161,0.0,2.0,58,0.00,,,0.00,Wunderground v.1.15,2013-06-21 00:43:00,
2013-06-20 19:48:00,83.2,66.9,29.94,SSE,161,3.0,4.0,58,0.00,,,0.00,Wunderground v.1.15,2013-06-21 00:48:00,
2013-06-20 19:53:00,82.8,66.5,29.94,SSW,201,0.0,6.0,58,0.00,,,0.00,Wunderground v.1.15,2013-06-21 00:53:00,
2013-06-20 19:58:00,82.6,66.3,29.94,SSE,165,6.0,6.0,58,0.00,,,0.00,Wunderground v.1.15,2013-06-21 00:58:00,
2013-06-20 20:03:00,82.4,66.1,29.94,SE,139,5.0,6.0,58,0.00,,,0.00,Wunderground v.1.15,2013-06-21 01:03:00,
2013-06-20 20:08:00,82.2,66.4,29.94,SE,138,3.0,6.0,59,0.00,,,0.00,Wunderground v.1.15,2013-06-21 01:08:00,
2013-06-20 20:13:00,82.0,66.3,29.94,SE,138,0.0,2.0,59,0.00,,,0.00,Wunderground v.1.15,2013-06-21 01:13:00,
2013-06-20 20:18:00,81.6,66.4,29.94,SSE,164,2.0,4.0,60,0.00,,,0.00,Wunderground v.1.15,2013-06-21 01:18:00,
2013-06-20 20:23:00,81.4,66.7,29.94,SSW,196,0.0,2.0,61,0.00,,,0.00,Wunderground v.1.15,2013-06-21 01:23:00,
2013-06-20 20:28:00,81.2,66.5,29.94,SSW,194,0.0,4.0,61,0.00,,,0.00,Wunderground v.1.15,2013-06-21 01:28:00,
2013-06-20 20:33:00,81.1,66.4,29.94,SSE,157,1.0,3.0,61,0.00,,,0.00,Wunderground v.1.15,2013-06-21 01:33:00,
2013-06-20 20:38:00,80.9,66.2,29.94,SSE,157,0.0,6.0,61,0.00,,,0.00,Wunderground v.1.15,2013-06-21 01:38:00,
2013-06-20 20:43:00,80.7,66.0,29.94,SSE,157,3.0,5.0,61,0.00,,,0.00,Wunderground v.1.15,2013-06-21 01:43:00,
2013-06-20 20:48:00,80.5,66.3,29.94,South,182,2.0,5.0,62,0.00,,,0.00,Wunderground v.1.15,2013-06-21 01:48:00,
2013-06-20 20:53:00,80.3,66.1,29.94,SSE,162,1.0,3.0,62,0.00,,,0.00,Wunderground v.1.15,2013-06-21 01:53:00,
2013-06-20 20:58:00,80.1,65.9,29.94,SSE,159,1.0,7.0,62,0.00,,,0.00,Wunderground v.1.15,2013-06-21 01:58:00,
2013-06-20 21:03:00,79.9,66.2,29.94,SSE,155,2.0,4.0,63,0.00,,,0.00,Wunderground v.1.15,2013-06-21 02:03:00,
2013-06-20 21:08:00,79.8,66.1,29.94,South,174,0.0,6.0,63,0.00,,,0.00,Wunderground v.1.15,2013-06-21 02:08:00,
2013-06-20 21:13:00,79.6,65.9,29.94,SSE,151,0.0,3.0,63,0.00,,,0.00,Wunderground v.1.15,2013-06-21 02:13:00,
2013-06-20 21:18:00,79.4,66.2,29.94,SE,134,2.0,4.0,64,0.00,,,0.00,Wunderground v.1.15,2013-06-21 02:18:00,
2013-06-20 21:23:00,79.2,66.0,29.94,SE,135,3.0,3.0,64,0.00,,,0.00,Wunderground v.1.15,2013-06-21 02:23:00,
2013-06-20 21:28:00,79.0,66.2,29.94,South,171,0.0,4.0,65,0.00,,,0.00,Wunderground v.1.15,2013-06-21 02:28:00,
2013-06-20 21:33:00,78.8,66.0,29.94,South,188,0.0,4.0,65,0.00,,,0.00,Wunderground v.1.15,2013-06-21 02:33:00,
2013-06-20 21:38:00,78.6,66.3,29.94,South,188,0.0,4.0,66,0.00,,,0.00,Wunderground v.1.15,2013-06-21 02:38:00,
2013-06-20 21:43:00,78.6,66.3,29.94,South,174,0.0,3.0,66,0.00,,,0.00,Wunderground v.1.15,2013-06-21 02:43:00,
2013-06-20 21:48:00,78.5,66.2,29.95,SSE,167,2.0,3.0,66,0.00,,,0.00,Wunderground v.1.15,2013-06-21 02:48:00,
2013-06-20 21:53:00,78.5,66.2,29.95,South,189,0.0,4.0,66,0.00,,,0.00,Wunderground v.1.15,2013-06-21 02:53:00,
2013-06-20 21:59:00,78.5,66.2,29.95,SE,128,0.0,5.0,66,0.00,,,0.00,Wunderground v.1.15,2013-06-21 02:59:00,
2013-06-20 22:04:00,78.3,66.0,29.96,SE,128,3.0,3.0,66,0.00,,,0.00,Wunderground v.1.15,2013-06-21 03:04:00,
2013-06-20 22:08:00,78.1,66.2,29.96,SE,125,5.0,5.0,67,0.00,,,0.00,Wunderground v.1.15,2013-06-21 03:08:00,
2013-06-20 22:13:00,77.9,66.5,29.96,SE,144,0.0,4.0,68,0.00,,,0.00,Wunderground v.1.15,2013-06-21 03:13:00,
2013-06-20 22:19:00,77.6,66.6,29.97,SSE,149,0.0,4.0,69,0.00,,,0.00,Wunderground v.1.15,2013-06-21 03:19:00,
2013-06-20 22:24:00,77.6,66.6,29.97,SSE,149,0.0,2.0,69,0.00,,,0.00,Wunderground v.1.15,2013-06-21 03:24:00,
2013-06-20 22:29:00,77.4,66.4,29.97,SSE,149,0.0,3.0,69,0.00,,,0.00,Wunderground v.1.15,2013-06-21 03:29:00,
2013-06-20 22:34:00,77.2,66.2,29.98,SSE,153,0.0,3.0,69,0.00,,,0.00,Wunderground v.1.15,2013-06-21 03:34:00,
2013-06-20 22:39:00,77.2,66.7,29.98,SE,146,0.0,5.0,70,0.00,,,0.00,Wunderground v.1.15,2013-06-21 03:39:00,
2013-06-20 22:44:00,77.0,66.5,29.98,SE,146,0.0,3.0,70,0.00,,,0.00,Wunderground v.1.15,2013-06-21 03:44:00,
2013-06-20 22:49:00,76.8,66.7,29.99,South,188,2.0,4.0,71,0.00,,,0.00,Wunderground v.1.15,2013-06-21 03:49:00,
2013-06-20 22:54:00,76.7,66.6,29.99,South,188,0.0,3.0,71,0.00,,,0.00,Wunderground v.1.15,2013-06-21 03:54:00,
2013-06-20 22:59:00,76.7,67.0,29.99,South,188,0.0,3.0,72,0.00,,,0.00,Wunderground v.1.15,2013-06-21 03:59:00,
2013-06-20 23:01:00,76.7,67.0,29.99,South,188,0.0,3.0,72,0.00,,,0.00,Wunderground v.1.15,2013-06-21 04:01:00,
2013-06-20 23:06:00,76.5,66.8,29.99,South,188,0.0,3.0,72,0.00,,,0.00,Wunderground v.1.15,2013-06-21 04:06:00,
2013-06-20 23:11:00,76.5,66.8,29.99,SSE,162,0.0,2.0,72,0.00,,,0.00,Wunderground v.1.15,2013-06-21 04:11:00,
2013-06-20 23:17:00,76.7,67.0,29.99,South,186,2.0,5.0,72,0.00,,,0.00,Wunderground v.1.15,2013-06-21 04:17:00,
2013-06-20 23:22:00,76.7,67.0,29.99,South,186,0.0,1.0,72,0.00,,,0.00,Wunderground v.1.15,2013-06-21 04:22:00,
2013-06-20 23:27:00,76.5,66.8,29.99,South,182,2.0,4.0,72,0.00,,,0.00,Wunderground v.1.15,2013-06-21 04:27:00,
2013-06-20 23:31:00,76.5,67.2,29.99,South,182,0.0,1.0,73,0.00,,,0.00,Wunderground v.1.15,2013-06-21 04:31:00,
2013-06-20 23:37:00,76.3,67.0,29.99,South,182,0.0,3.0,73,0.00,,,0.00,Wunderground v.1.15,2013-06-21 04:37:00,
2013-06-20 23:42:00,76.1,66.8,29.99,South,180,0.0,1.0,73,0.00,,,0.00,Wunderground v.1.15,2013-06-21 04:42:00,
2013-06-20 23:47:00,76.1,66.8,30.00,South,185,0.0,4.0,73,0.00,,,0.00,Wunderground v.1.15,2013-06-21 04:47:00,
2013-06-20 23:52:00,76.1,66.8,30.00,South,185,1.0,1.0,73,0.00,,,0.00,Wunderground v.1.15,2013-06-21 04:52:00,
2013-06-20 23:57:00,76.1,66.8,30.00,SSE,155,0.0,4.0,73,0.00,,,0.00,Wunderground v.1.15,2013-06-21 04:57:00,